"Pseudo-MPEC" for CC9GH72

Created 2024 Nov 16 14:31:04 UT using Find_Orb

Click here for an explanation of pseudo-MPECs

 
 Astrometry: 
     CC9GH72*1C2024 11 13.48307809 32 31.182+31 34 48.00   ~BDCl 20.76GVNEOCPG96
     CC9GH72 1C2024 11 13.48821309 32 27.280+31 35 13.24   ~BDCl       VNEOCPG96
     CC9GH72 1C2024 11 13.49334909 32 23.262+31 35 37.00   ~BDCl 21.06GVNEOCPG96
     CC9GH72 1C2024 11 13.49848909 32 19.370+31 36 01.55   ~BDCl 20.68GVNEOCPG96
     CC9GH72 1C2024 11 13.53107709 31 54.376+31 38 34.55   ~BDDH 21.03GVNEOCPG96
     CC9GH72 1C2024 11 13.53166509 31 53.915+31 38 37.21   ~BDDH 20.93GVNEOCPG96
     CC9GH72 1C2024 11 13.53225409 31 53.461+31 38 40.02   ~BDDH 20.43GVNEOCPG96
     CC9GH72 1C2024 11 13.53284209 31 53.051+31 38 42.79   ~BDDH 21.02GVNEOCPG96
     CC9GH72 KC2024 11 14.41388209 21 56.408+32 41 28.54   ~BEAl 20.55GVNEOCPI52
     CC9GH72 KC2024 11 14.41763009 21 53.723+32 41 45.10   ~BEAl 20.37GVNEOCPI52
     CC9GH72 KC2024 11 14.42135909 21 51.091+32 42 01.37   ~BEAl 20.87GVNEOCPI52
     CC9GH72 KC2024 11 14.42509509 21 48.398+32 42 17.68   ~BEAl 20.71GVNEOCPI52
     CC9GH72 KC2024 11 15.40351609 11 08.884+33 44 17.92   ~BFAH 20.90GVNEOCPI52
     CC9GH72 KC2024 11 15.40654209 11 06.803+33 44 29.72   ~BFAH 20.40GVNEOCPI52
     CC9GH72 KC2024 11 15.40956709 11 04.722+33 44 40.92   ~BFAH 20.76GVNEOCPI52
     CC9GH72 KC2024 11 15.41260309 11 02.562+33 44 53.48   ~BFAH       VNEOCPI52
     CC9GH72 KB2024 11 16.06499 09 04 12.00 +34 21 24.0    ~BGDV       VNEOCP204
     CC9GH72 KB2024 11 16.09876 09 03 49.73 +34 23 23.2    ~BGDV 20.9 GVNEOCP204

Station data:
(204) Schiaparelli Observatory  (N45.868292 E8.769720)  Italy.  Observer L.
   Buzzi. 0.60-m f/4.64 Newtonian + CCD0.84-m f/3.5 reflector + CCD.
(G96) Mt. Lemmon Survey  (N32.442729 W110.788720)  US/Arizona.  Observer E.
   J. Christensen. 1.5-m reflector + 10K CCD.
(I52) Steward Observatory, Mt. Lemmon Station  (N32.442570 W110.788920)
   US/Arizona.  Observers T. A. Pruyne, B. M. Africano, E. J. Christensen, G.
   A. Farneth, D. C. Fuls, A. R. Gibbs, A. D. Grauer, H. Gröller, J. A.
   Johnson, R. A. Kowalski, S. M. Larson, G. J. Leonard, D. Rankin, R. L.
   Seaman, F. C. Shelly, K. W. Wierzchoś. 1.0-m prime focus + CCD.

Orbital elements:  CC9GH72
   Perihelion 2024 Oct 3.50706 +/- 0.0157 TT = 12:10:09 (JD 2460587.00706)
Epoch 2024 Nov 16.0 TT = JDT 2460630.5   Earth MOID: 0.0122   Ma: 0.0020
M  29.48814107 +/- 0.09             (J2000 ecliptic)             AutoNEOCP
n   0.67799831 +/- 0.00227          Peri.  329.09029 +/- 0.046
a   1.28326684 +/- 0.00286          Node    35.93879 +/- 0.006
e   0.2828346 +/- 0.00203           Incl.    2.63165 +/- 0.015
P   1.454/530.965d         H 24.68  G  0.15   U  8.7
q 0.92031450 +/- 0.000561    Q 1.64621917 +/- 0.00629
From 18 observations 2024 Nov. 13-16; mean residual 0".35
Residuals in arcseconds: 
241113 G96  .19-  .28-    241113 G96  .09+  .00     241115 I52  .32+  .21+    
241113 G96  .13+  .37+    241113 G96  .63+  .05+    241115 I52  .18+  .17+    
241113 G96  .97-  .37-    241114 I52  .14-  .28+    241115 I52  .06+  .45-    
241113 G96  .37-  .25-    241114 I52  .11-  .30+    241115 I52  .92-  .27+    
241113 G96  .21+  .03-    241114 I52  .47+  .16+    241116 204  .34+  .34-    
241113 G96  .10+  .09-    241114 I52  .40+  .05+    241116 204  .31-  .07+    

Ephemerides (geocentric):
Date (UTC) HH   RA             Dec           delta  r     elong  mag " sig PA
---- --------  ------------   ------------  ------ ------ -----  --- --------
2024 11 16 15  08 58 24.359   +34 51 35.51  .05824 1.0069 106.6 21.0 .369 114
2024 11 16 16  08 57 59.361   +34 53 41.26  .05834 1.0071 106.7 21.0 .350 114
2024 11 16 17  08 57 34.416   +34 55 46.31  .05843 1.0072 106.8 21.0 .331 115
2024 11 16 18  08 57 09.523   +34 57 50.65  .05852 1.0074 107.0 21.0 .312 115
2024 11 16 19  08 56 44.681   +34 59 54.30  .05862 1.0075 107.1 21.0 .292 116
2024 11 16 20  08 56 19.892   +35 01 57.26  .05871 1.0077 107.2 21.0 .272 116
2024 11 16 21  08 55 55.154   +35 03 59.53  .05881 1.0078 107.4 21.0 .251 117
2024 11 16 22  08 55 30.467   +35 06 01.11  .05890 1.0080 107.5 21.0 .231 118
2024 11 16 23  08 55 05.832   +35 08 02.00  .05899 1.0081 107.6 21.0 .210 119
2024 11 17 00  08 54 41.249   +35 10 02.22  .05909 1.0083 107.8 21.0 .188 121
2024 11 17 01  08 54 16.716   +35 12 01.76  .05918 1.0084 107.9 21.0 .167 123
2024 11 17 02  08 53 52.235   +35 14 00.63  .05928 1.0086 108.0 21.0 .146 125
2024 11 17 03  08 53 27.805   +35 15 58.83  .05937 1.0087 108.1 21.0 .124 129
2024 11 17 04  08 53 03.425   +35 17 56.37  .05947 1.0089 108.3 21.0 .103 134
2024 11 17 05  08 52 39.097   +35 19 53.24  .05956 1.0090 108.4 21.0 .083 142
2024 11 17 06  08 52 14.819   +35 21 49.45  .05966 1.0092 108.5 21.0 .065 154
2024 11 17 07  08 51 50.591   +35 23 45.01  .05975 1.0093 108.6 21.0 .052 174
2024 11 17 08  08 51 26.414   +35 25 39.92  .05985 1.0095 108.8 21.0 .049  21
2024 11 17 09  08 51 02.287   +35 27 34.17  .05995 1.0096 108.9 21.0 .057  47
2024 11 17 10  08 50 38.211   +35 29 27.79  .06004 1.0098 109.0 21.0 .073  64
2024 11 17 11  08 50 14.184   +35 31 20.76  .06014 1.0099 109.1 21.0 .094  74
2024 11 17 12  08 49 50.208   +35 33 13.09  .06023 1.0101 109.3 21.0 .117  81
2024 11 17 13  08 49 26.281   +35 35 04.78  .06033 1.0102 109.4 21.0 .141  85
2024 11 17 14  08 49 02.404   +35 36 55.85  .06042 1.0104 109.5 21.0 .166  88
2024 11 17 15  08 48 38.577   +35 38 46.28  .06052 1.0105 109.6 21.0 .191  91
2024 11 17 16  08 48 14.799   +35 40 36.09  .06062 1.0107 109.8 21.0 .217  92
2024 11 17 17  08 47 51.071   +35 42 25.28  .06071 1.0108 109.9 21.0 .244  94
2024 11 17 18  08 47 27.392   +35 44 13.85  .06081 1.0110 110.0 21.0 .271  95
2024 11 17 19  08 47 03.762   +35 46 01.80  .06091 1.0111 110.1 21.0 .298  96
2024 11 17 20  08 46 40.180   +35 47 49.14  .06100 1.0113 110.3 21.0 .325  97
2024 11 17 21  08 46 16.648   +35 49 35.87  .06110 1.0114 110.4 21.0 .353  97
2024 11 17 22  08 45 53.165   +35 51 21.99  .06120 1.0116 110.5 21.0 .381  98
2024 11 17 23  08 45 29.730   +35 53 07.51  .06130 1.0117 110.6 21.0 .410  98
2024 11 18 00  08 45 06.344   +35 54 52.43  .06139 1.0119 110.8 21.0 .439  99
2024 11 18 01  08 44 43.006   +35 56 36.75  .06149 1.0120 110.9 21.0 .468  99
2024 11 18 02  08 44 19.716   +35 58 20.48  .06159 1.0122 111.0 21.0 .497  99
2024 11 18 03  08 43 56.475   +36 00 03.62  .06169 1.0123 111.1 21.0 .526 100
2024 11 18 04  08 43 33.281   +36 01 46.17  .06178 1.0125 111.2 21.0 .556 100
2024 11 18 05  08 43 10.136   +36 03 28.13  .06188 1.0126 111.4 21.0 .586 100
2024 11 18 06  08 42 47.038   +36 05 09.51  .06198 1.0128 111.5 21.0 .616 100
2024 11 18 07  08 42 23.988   +36 06 50.32  .06208 1.0129 111.6 21.0 .647 100
2024 11 18 08  08 42 00.985   +36 08 30.54  .06218 1.0131 111.7 21.0 .677 101
2024 11 18 09  08 41 38.030   +36 10 10.20  .06227 1.0132 111.8 21.0 .708 101
2024 11 18 10  08 41 15.122   +36 11 49.28  .06237 1.0134 112.0 21.0 .739 101
2024 11 18 11  08 40 52.261   +36 13 27.80  .06247 1.0135 112.1 21.0 .770 101
2024 11 18 12  08 40 29.448   +36 15 05.75  .06257 1.0137 112.2 21.0 .802 101
2024 11 18 13  08 40 06.681   +36 16 43.15  .06267 1.0138 112.3 21.0 .833 101
2024 11 18 14  08 39 43.961   +36 18 19.98  .06277 1.0140 112.4 21.0 .865 101